| time (UTC) | temp F | wind direction | speed knots | gust knots | rain 1hr in | rain 24hr in | rain mn in | humidity % | barometer mb |
| 20260510134053 | 81 | 146 | 0.0 | 3.5 | 0.00 | 0.02 | 0.02 | 82 | 1016.8 |
| 20260510133552 | 81 | 102 | 0.0 | 3.5 | 0.00 | 0.02 | 0.02 | 83 | 1016.9 |
| 20260510133054 | 80 | 171 | 0.0 | 3.5 | 0.00 | 0.02 | 0.02 | 83 | 1016.7 |
| 20260510132554 | 80 | 0 | 0.0 | 3.5 | 0.00 | 0.02 | 0.02 | 83 | 1016.8 |
| 20260510132053 | 79 | 97 | 0.9 | 3.5 | 0.00 | 0.02 | 0.02 | 85 | 1016.8 |
| 20260510131557 | 79 | 0 | 0.0 | 4.3 | 0.00 | 0.02 | 0.02 | 86 | 1016.9 |
| 20260510131053 | 78 | 161 | 0.9 | 4.3 | 0.00 | 0.02 | 0.02 | 87 | 1016.9 |
| 20260510130552 | 77 | 117 | 0.9 | 3.5 | 0.00 | 0.02 | 0.02 | 88 | 1016.7 |
| 20260510130053 | 77 | 88 | 0.9 | 3.5 | 0.00 | 0.02 | 0.02 | 89 | 1016.7 |
| 20260510125553 | 76 | 132 | 0.0 | 1.7 | 0.00 | 0.02 | 0.02 | 90 | 1016.6 |
| 20260510125052 | 76 | 0 | 0.9 | 2.6 | 0.00 | 0.02 | 0.02 | 91 | 1016.7 |
| 20260510124600 | 75 | 0 | 0.0 | 2.6 | 0.00 | 0.02 | 0.02 | 91 | 1016.7 |
| 20260510124052 | 75 | 0 | 0.0 | 2.6 | 0.00 | 0.02 | 0.02 | 91 | 1016.8 |
| 20260510123553 | 75 | 0 | 0.0 | 2.6 | 0.00 | 0.02 | 0.02 | 91 | 1016.8 |
| 20260510123056 | 75 | 0 | 0.0 | 2.6 | 0.00 | 0.02 | 0.02 | 91 | 1016.5 |
| 20260510122552 | 75 | 119 | 0.0 | 0.9 | 0.00 | 0.02 | 0.02 | 92 | 1016.6 |
| 20260510122052 | 74 | 0 | 0.0 | 0.9 | 0.00 | 0.02 | 0.02 | 91 | 1016.5 |
| 20260510121557 | 74 | 0 | 0.0 | 0.9 | 0.00 | 0.02 | 0.02 | 91 | 1016.5 |
| 20260510121052 | 74 | 0 | 0.0 | 0.0 | 0.00 | 0.02 | 0.02 | 92 | 1016.5 |
| 20260510120552 | 74 | 0 | 0.0 | 0.0 | 0.00 | 0.02 | 0.02 | 92 | 1016.5 |
| 20260510115553 | 74 | 0 | 0.0 | 0.0 | 0.00 | 0.02 | 0.02 | 92 | 1016.3 |
| 20260510115050 | 74 | 0 | 0.0 | 0.0 | 0.00 | 0.02 | 0.02 | 92 | 1016.1 |
| 20260510114608 | 74 | 0 | 0.0 | 0.0 | 0.00 | 0.02 | 0.02 | 92 | 1016.0 |